Voltar ao catálogo

ONEWEB-0056

AtivoComunicaçõesPO
NORAD 45159·PAYLOAD·🇬🇧 United Kingdom

Lançado Feb 6, 2020 de Baikonur Cosmodrome

Loading…

Próximas Passagens (próximas 24 horas)

TLE

AtualizadoSource: CelesTrak SupGP

Época: Sep 14, 2026, 17:18 UTC

1 45159C 20008AE  26257.72098796  .00003212  00000+0  92120-2 0  2574
2 45159  87.8926  18.4394 0001490 105.0232   5.2728 13.10375916    13

Acompanhe ONEWEB-0056 em tempo real com AllMySat

Download on the App Store